PTVZE FKKD-DFFD

Flight info

Callsign PTVZE
Flight time 1h 57m
Altitude 42000
Route MBO DCT ARDEX UP685 SITPO UG856 LAG UR984 OXIDU OXIDU1B
Aircraft C750/M-SBDE3FGHRWXY/S

Departure

Time 2026-04-21 21:10
Airport Douala International Airport (FKKD)

Arrival

Time 2026-04-21 23:08
Airport Ouagadougou Thomas Sankara International Airport (DFFD)
Time Latitude Longitude Altitude Speed Heading
2026-04-21 20:57 4.01000 9.72141 35 ft 0 kts 24°
2026-04-21 21:03 4.01017 9.72133 35 ft 6 kts 306°
2026-04-21 21:03 4.00984 9.72073 35 ft 14 kts 205°
2026-04-21 21:04 4.00964 9.72025 35 ft 9 kts 288°
2026-04-21 21:04 4.01006 9.71936 36 ft 11 kts 289°
2026-04-21 21:04 4.01035 9.71866 37 ft 13 kts 301°
2026-04-21 21:04 4.01009 9.71772 37 ft 21 kts 206°
2026-04-21 21:05 4.00839 9.71685 39 ft 18 kts 207°
2026-04-21 21:05 4.00783 9.71656 39 ft 9 kts 155°
2026-04-21 21:05 4.00732 9.71710 38 ft 12 kts 109°
2026-04-21 21:05 4.00674 9.71829 37 ft 28 kts 118°
2026-04-21 21:06 4.00593 9.71995 36 ft 25 kts 115°
2026-04-21 21:06 4.00517 9.72153 33 ft 25 kts 116°
2026-04-21 21:06 4.00429 9.72318 31 ft 28 kts 116°
2026-04-21 21:06 4.00344 9.72491 29 ft 27 kts 116°
2026-04-21 21:07 4.00257 9.72651 29 ft 25 kts 115°
2026-04-21 21:07 4.00187 9.72800 28 ft 22 kts 115°
2026-04-21 21:07 4.00135 9.72905 28 ft 15 kts 116°
2026-04-21 21:07 4.00082 9.72990 28 ft 15 kts 137°
2026-04-21 21:08 4.00063 9.73016 27 ft 1 kts 99°
2026-04-21 21:08 4.00061 9.73024 27 ft 1 kts 99°
2026-04-21 21:08 4.00061 9.73030 27 ft 0 kts 91°
2026-04-21 21:09 4.00067 9.73036 27 ft 4 kts 40°
2026-04-21 21:09 4.00074 9.73029 27 ft 2 kts 306°
2026-04-21 21:09 4.00085 9.73001 27 ft 11 kts 286°
2026-04-21 21:10 4.00185 9.72801 28 ft 77 kts 296°
2026-04-21 21:10 4.00565 9.72038 108 ft 150 kts 296°
2026-04-21 21:10 4.01092 9.71155 712 ft 143 kts 305°
2026-04-21 21:10 4.01636 9.70318 1293 ft 152 kts 290°
2026-04-21 21:11 4.01753 9.69189 1621 ft 174 kts 262°
2026-04-21 21:11 4.01460 9.68032 2382 ft 170 kts 253°
2026-04-21 21:11 4.01146 9.66813 2846 ft 195 kts 255°
2026-04-21 21:11 4.00797 9.65407 3341 ft 221 kts 255°
2026-04-21 21:12 4.00392 9.63812 3864 ft 246 kts 255°
2026-04-21 21:12 3.99952 9.62092 4371 ft 269 kts 255°
2026-04-21 21:12 3.99481 9.60249 5223 ft 275 kts 255°
2026-04-21 21:12 3.98999 9.58367 6012 ft 284 kts 255°
2026-04-21 21:13 3.98499 9.56416 6778 ft 293 kts 255°
2026-04-21 21:13 3.97987 9.54417 7618 ft 300 kts 256°
2026-04-21 21:13 3.97462 9.52368 8509 ft 308 kts 256°
2026-04-21 21:13 3.96921 9.50257 9360 ft 317 kts 256°
2026-04-21 21:14 3.96365 9.48088 10090 ft 327 kts 256°
2026-04-21 21:14 3.95779 9.45802 10333 ft 353 kts 256°
2026-04-21 21:14 3.95147 9.43337 10433 ft 380 kts 256°
2026-04-21 21:14 3.94476 9.40724 11000 ft 387 kts 255°
2026-04-21 21:15 3.93806 9.38114 11819 ft 389 kts 255°
2026-04-21 21:15 3.93130 9.35477 12513 ft 392 kts 255°
2026-04-21 21:15 3.92449 9.32823 13249 ft 395 kts 255°
2026-04-21 21:15 3.91764 9.30155 13927 ft 398 kts 254°
2026-04-21 21:16 3.91072 9.27460 14544 ft 401 kts 254°
2026-04-21 21:16 3.90375 9.24746 15165 ft 403 kts 254°
2026-04-21 21:16 3.89677 9.22029 15808 ft 406 kts 254°
2026-04-21 21:16 3.88973 9.19285 16437 ft 409 kts 255°
2026-04-21 21:17 3.88261 9.16514 17109 ft 412 kts 255°
2026-04-21 21:17 3.87539 9.13703 17785 ft 416 kts 255°
2026-04-21 21:17 3.86818 9.10898 18418 ft 419 kts 255°
2026-04-21 21:17 3.86088 9.08056 19055 ft 422 kts 255°
2026-04-21 21:18 3.85354 9.05200 19678 ft 425 kts 255°
2026-04-21 21:18 3.84612 9.02313 20295 ft 429 kts 255°
2026-04-21 21:18 3.83865 8.99408 20912 ft 433 kts 255°
2026-04-21 21:18 3.83111 8.96476 21527 ft 437 kts 255°
2026-04-21 21:19 3.82351 8.93520 22132 ft 441 kts 255°
2026-04-21 21:19 3.81583 8.90534 22750 ft 444 kts 255°
2026-04-21 21:19 3.80809 8.87524 23357 ft 449 kts 255°
2026-04-21 21:19 3.80028 8.84487 23886 ft 452 kts 255°
2026-04-21 21:20 3.79242 8.81433 24431 ft 454 kts 255°
2026-04-21 21:20 3.78451 8.78357 24970 ft 457 kts 255°
2026-04-21 21:20 3.77888 8.75257 25436 ft 461 kts 265°
2026-04-21 21:20 3.77863 8.72049 25999 ft 462 kts 274°
2026-04-21 21:21 3.78384 8.68832 26577 ft 463 kts 285°
2026-04-21 21:21 3.79404 8.65831 27127 ft 463 kts 294°
2026-04-21 21:21 3.80650 8.62873 27689 ft 465 kts 294°
2026-04-21 21:21 3.81905 8.59849 28251 ft 467 kts 294°
2026-04-21 21:22 3.83144 8.56853 28785 ft 470 kts 294°
2026-04-21 21:22 3.84414 8.53813 29312 ft 472 kts 294°
2026-04-21 21:22 3.85688 8.50774 29816 ft 475 kts 294°
2026-04-21 21:22 3.86966 8.47709 30236 ft 478 kts 294°
2026-04-21 21:23 3.88246 8.44628 30601 ft 481 kts 294°
2026-04-21 21:23 3.89539 8.41524 31010 ft 483 kts 294°
2026-04-21 21:23 3.90834 8.38423 31595 ft 481 kts 294°
2026-04-21 21:23 3.92120 8.35335 32071 ft 481 kts 294°
2026-04-21 21:24 3.93408 8.32242 32556 ft 482 kts 293°
2026-04-21 21:24 3.94699 8.29141 33041 ft 482 kts 294°
2026-04-21 21:24 3.95995 8.26030 33491 ft 483 kts 293°
2026-04-21 21:24 3.97288 8.22926 34036 ft 482 kts 293°
2026-04-21 21:25 3.98576 8.19832 34490 ft 481 kts 292°
2026-04-21 21:25 3.99864 8.16737 34918 ft 482 kts 292°
2026-04-21 21:25 4.01156 8.13634 35374 ft 481 kts 292°
2026-04-21 21:25 4.02438 8.10556 35913 ft 479 kts 292°
2026-04-21 21:26 4.03721 8.07472 36388 ft 478 kts 292°
2026-04-21 21:26 4.05000 8.04398 36887 ft 478 kts 292°
2026-04-21 21:26 4.06277 8.01328 37442 ft 476 kts 292°
2026-04-21 21:26 4.07545 7.98280 38028 ft 473 kts 292°
2026-04-21 21:27 4.08795 7.95277 38542 ft 473 kts 292°
2026-04-21 21:27 4.10058 7.92240 39028 ft 471 kts 292°
2026-04-21 21:27 4.11309 7.89217 39516 ft 469 kts 291°
2026-04-21 21:27 4.12273 7.86104 39923 ft 468 kts 281°
2026-04-21 21:28 4.12740 7.82910 40404 ft 465 kts 274°
2026-04-21 21:28 4.12949 7.79672 40909 ft 463 kts 271°
2026-04-21 21:28 4.13498 7.73264 41812 ft 458 kts 276°
2026-04-21 21:29 4.13893 7.70085 41879 ft 466 kts 275°
2026-04-21 21:29 4.14475 7.63508 41893 ft 482 kts 274°
2026-04-21 21:30 4.15177 7.56708 41896 ft 499 kts 275°
2026-04-21 21:30 4.15851 7.49702 41902 ft 509 kts 274°
2026-04-21 21:31 4.16545 7.42678 41894 ft 505 kts 275°
2026-04-21 21:31 4.17233 7.35668 41894 ft 507 kts 274°
2026-04-21 21:32 4.17920 7.28631 41895 ft 507 kts 275°
2026-04-21 21:32 4.18496 7.22796 41895 ft 507 kts 274°
2026-04-21 21:33 4.19179 7.15760 41891 ft 507 kts 275°
2026-04-21 21:33 4.19870 7.08726 41891 ft 507 kts 274°
2026-04-21 21:34 4.20553 7.01701 41893 ft 507 kts 274°
2026-04-21 21:34 4.21241 6.94666 41893 ft 507 kts 274°
2026-04-21 21:35 4.21926 6.87631 41894 ft 507 kts 274°
2026-04-21 21:35 4.22611 6.80597 41896 ft 507 kts 275°
2026-04-21 21:36 4.23295 6.73562 41902 ft 508 kts 275°
2026-04-21 21:36 4.23977 6.66540 41901 ft 507 kts 274°
2026-04-21 21:37 4.24655 6.59500 41898 ft 508 kts 275°
2026-04-21 21:37 4.25336 6.52457 41893 ft 507 kts 274°
2026-04-21 21:38 4.26013 6.45421 41896 ft 508 kts 275°
2026-04-21 21:38 4.26694 6.38305 41899 ft 514 kts 275°
2026-04-21 21:39 4.27358 6.31244 41896 ft 513 kts 275°
2026-04-21 21:39 4.28034 6.24128 41892 ft 513 kts 275°
2026-04-21 21:40 4.28705 6.17008 41892 ft 513 kts 275°
2026-04-21 21:40 4.29382 6.09845 41891 ft 513 kts 275°
2026-04-21 21:41 4.30051 6.02760 41892 ft 515 kts 274°
2026-04-21 21:41 4.30732 5.95620 41893 ft 515 kts 274°
2026-04-21 21:42 4.31408 5.88468 41892 ft 515 kts 274°
2026-04-21 21:42 4.32085 5.81331 41893 ft 515 kts 274°
2026-04-21 21:43 4.32761 5.74185 41896 ft 515 kts 274°
2026-04-21 21:43 4.34279 5.67190 41884 ft 516 kts 290°
2026-04-21 21:44 4.37772 5.60944 41881 ft 516 kts 308°
2026-04-21 21:44 4.42875 5.55907 41889 ft 516 kts 321°
2026-04-21 21:45 4.48451 5.51431 41890 ft 517 kts 320°
2026-04-21 21:45 4.53548 5.46355 41893 ft 516 kts 313°
2026-04-21 21:46 4.58614 5.41262 41895 ft 513 kts 317°
2026-04-21 21:46 4.63781 5.36362 41893 ft 511 kts 314°
2026-04-21 21:47 4.68820 5.31324 41891 ft 511 kts 316°
2026-04-21 21:47 4.73965 5.26393 41886 ft 514 kts 315°
2026-04-21 21:48 4.79037 5.21373 41889 ft 512 kts 316°
2026-04-21 21:48 4.84186 5.16376 41892 ft 515 kts 315°
2026-04-21 21:49 4.89252 5.11354 41893 ft 511 kts 315°
2026-04-21 21:49 4.94352 5.06367 41893 ft 511 kts 315°
2026-04-21 21:50 4.99418 5.01370 41892 ft 514 kts 315°
2026-04-21 21:50 5.04542 4.96339 41897 ft 514 kts 315°
2026-04-21 21:51 5.09653 4.91307 41900 ft 516 kts 315°
2026-04-21 21:51 5.14777 4.86267 41900 ft 516 kts 315°
2026-04-21 21:52 5.19891 4.81232 41903 ft 515 kts 315°
2026-04-21 21:52 5.25012 4.76191 41902 ft 515 kts 315°
2026-04-21 21:53 5.30123 4.71158 41905 ft 515 kts 315°
2026-04-21 21:53 5.35237 4.66122 41906 ft 515 kts 315°
2026-04-21 21:54 5.40320 4.61113 41902 ft 517 kts 315°
2026-04-21 21:54 5.45450 4.56058 41904 ft 516 kts 315°
2026-04-21 21:55 5.50578 4.51004 41898 ft 517 kts 315°
2026-04-21 21:55 5.55703 4.45950 41899 ft 516 kts 315°
2026-04-21 21:56 5.60827 4.40898 41902 ft 516 kts 315°
2026-04-21 21:56 5.65960 4.35834 41902 ft 516 kts 315°
2026-04-21 21:57 5.71088 4.30774 41898 ft 517 kts 315°
2026-04-21 21:57 5.76202 4.25727 41911 ft 512 kts 315°
2026-04-21 21:58 5.81277 4.20716 41903 ft 513 kts 315°
2026-04-21 21:58 5.86330 4.15727 41902 ft 513 kts 315°
2026-04-21 21:59 5.91436 4.10683 41903 ft 517 kts 315°
2026-04-21 21:59 5.96554 4.05641 41897 ft 515 kts 315°
2026-04-21 22:00 6.01710 4.00604 41895 ft 517 kts 315°
2026-04-21 22:00 6.06845 3.95554 41907 ft 514 kts 315°
2026-04-21 22:01 6.11948 3.90557 41908 ft 510 kts 315°
2026-04-21 22:01 6.17019 3.85574 41914 ft 510 kts 315°
2026-04-21 22:02 6.22111 3.80579 41910 ft 512 kts 315°
2026-04-21 22:02 6.27209 3.75571 41909 ft 514 kts 315°
2026-04-21 22:03 6.32322 3.70550 41910 ft 513 kts 315°
2026-04-21 22:03 6.37421 3.65540 41909 ft 513 kts 315°
2026-04-21 22:04 6.42516 3.60532 41928 ft 512 kts 315°
2026-04-21 22:04 6.47611 3.55524 41917 ft 511 kts 314°
2026-04-21 22:05 6.52655 3.50563 41920 ft 512 kts 314°
2026-04-21 22:05 6.57794 3.45509 41924 ft 512 kts 314°
2026-04-21 22:06 6.62883 3.40501 41915 ft 512 kts 314°
2026-04-21 22:06 6.67976 3.35488 41916 ft 512 kts 314°
2026-04-21 22:07 6.73183 3.30668 41905 ft 512 kts 319°
2026-04-21 22:07 6.78722 3.26157 41911 ft 514 kts 320°
2026-04-21 22:08 6.84261 3.21480 41922 ft 525 kts 319°
2026-04-21 22:08 6.89936 3.16791 41930 ft 527 kts 319°
2026-04-21 22:09 6.95578 3.12069 41932 ft 527 kts 319°
2026-04-21 22:09 7.01233 3.07364 41918 ft 528 kts 319°
2026-04-21 22:10 7.06885 3.02648 41917 ft 526 kts 319°
2026-04-21 22:10 7.12508 2.97957 41913 ft 525 kts 319°
2026-04-21 22:11 7.18149 2.93251 41904 ft 526 kts 319°
2026-04-21 22:11 7.23774 2.88554 41893 ft 526 kts 319°
2026-04-21 22:12 7.29371 2.83881 41905 ft 526 kts 319°
2026-04-21 22:12 7.35039 2.79146 41897 ft 526 kts 319°
2026-04-21 22:13 7.40634 2.74472 41887 ft 526 kts 319°
2026-04-21 22:13 7.46230 2.69723 41885 ft 526 kts 318°
2026-04-21 22:14 7.51831 2.64975 41893 ft 525 kts 319°
2026-04-21 22:14 7.57417 2.60245 41893 ft 524 kts 319°
2026-04-21 22:15 7.62969 2.55531 41886 ft 519 kts 319°
2026-04-21 22:15 7.68490 2.50852 41876 ft 519 kts 319°
2026-04-21 22:16 7.74026 2.46151 41875 ft 520 kts 319°
2026-04-21 22:16 7.79561 2.41454 41876 ft 520 kts 319°
2026-04-21 22:17 7.85052 2.36790 41879 ft 520 kts 319°
2026-04-21 22:17 7.90586 2.32088 41879 ft 520 kts 319°
2026-04-21 22:18 7.96111 2.27393 41886 ft 520 kts 319°
2026-04-21 22:18 8.01640 2.22693 41895 ft 518 kts 318°
2026-04-21 22:19 8.06265 2.18760 41883 ft 518 kts 318°
2026-04-21 22:19 8.11789 2.14061 41883 ft 519 kts 318°
2026-04-21 22:20 8.17260 2.09404 41879 ft 519 kts 318°
2026-04-21 22:20 8.22784 2.04701 41880 ft 519 kts 318°
2026-04-21 22:21 8.28297 2.00007 41880 ft 519 kts 318°
2026-04-21 22:21 8.33814 1.95306 41886 ft 519 kts 318°
2026-04-21 22:22 8.39328 1.90607 41887 ft 518 kts 318°
2026-04-21 22:22 8.44851 1.85897 41887 ft 519 kts 318°
2026-04-21 22:23 8.50372 1.81188 41890 ft 519 kts 318°
2026-04-21 22:23 8.55879 1.76489 41891 ft 519 kts 318°
2026-04-21 22:24 8.61408 1.71770 41893 ft 519 kts 318°
2026-04-21 22:24 8.66926 1.67057 41896 ft 519 kts 318°
2026-04-21 22:25 8.72440 1.62347 41898 ft 519 kts 318°
2026-04-21 22:25 8.77968 1.57622 41899 ft 520 kts 318°
2026-04-21 22:26 8.83487 1.52903 41898 ft 520 kts 318°
2026-04-21 22:26 8.89004 1.48184 41898 ft 519 kts 318°
2026-04-21 22:27 8.94526 1.43460 41899 ft 519 kts 318°
2026-04-21 22:27 9.00044 1.38735 41899 ft 519 kts 318°
2026-04-21 22:28 9.05553 1.34018 41905 ft 519 kts 318°
2026-04-21 22:28 9.11036 1.29320 41900 ft 519 kts 318°
2026-04-21 22:29 9.16587 1.24562 41898 ft 519 kts 318°
2026-04-21 22:29 9.22104 1.19831 41904 ft 519 kts 318°
2026-04-21 22:30 9.27617 1.15102 41901 ft 520 kts 318°
2026-04-21 22:30 9.33088 1.10408 41907 ft 519 kts 318°
2026-04-21 22:31 9.38590 1.05683 41903 ft 519 kts 318°
2026-04-21 22:31 9.44087 1.00961 41900 ft 519 kts 318°
2026-04-21 22:32 9.49589 0.96234 41905 ft 518 kts 318°
2026-04-21 22:32 9.55092 0.91508 41891 ft 518 kts 318°
2026-04-21 22:33 9.60583 0.86788 41888 ft 518 kts 318°
2026-04-21 22:33 9.66077 0.82065 41888 ft 518 kts 318°
2026-04-21 22:34 9.71566 0.77342 41883 ft 518 kts 318°
2026-04-21 22:34 9.77068 0.72607 41881 ft 519 kts 318°
2026-04-21 22:35 9.82566 0.67873 41883 ft 518 kts 318°
2026-04-21 22:35 9.88067 0.63134 41879 ft 519 kts 317°
2026-04-21 22:36 9.96319 0.56022 41878 ft 519 kts 317°
2026-04-21 22:36 10.01828 0.51271 41876 ft 519 kts 317°
2026-04-21 22:37 10.07327 0.46526 41876 ft 519 kts 317°
2026-04-21 22:37 10.12824 0.41782 41879 ft 519 kts 317°
2026-04-21 22:38 10.18329 0.37027 41867 ft 520 kts 317°
2026-04-21 22:38 10.23849 0.32259 41870 ft 520 kts 317°
2026-04-21 22:39 10.29349 0.27504 41868 ft 519 kts 317°
2026-04-21 22:39 10.34855 0.22743 41870 ft 520 kts 317°
2026-04-21 22:40 10.40327 0.18009 41870 ft 520 kts 317°
2026-04-21 22:40 10.45830 0.13245 41873 ft 520 kts 317°
2026-04-21 22:41 10.51334 0.08479 41873 ft 520 kts 317°
2026-04-21 22:41 10.56843 0.03706 41873 ft 520 kts 317°
2026-04-21 22:42 10.62320 -0.01040 41873 ft 515 kts 317°
2026-04-21 22:42 10.67781 -0.05773 41812 ft 514 kts 317°
2026-04-21 22:43 10.70487 -0.08104 41120 ft 501 kts 317°
2026-04-21 22:43 10.73110 -0.10368 40456 ft 487 kts 317°
2026-04-21 22:43 10.75654 -0.12573 39825 ft 474 kts 317°
2026-04-21 22:43 10.78132 -0.14721 39211 ft 463 kts 317°
2026-04-21 22:44 10.80560 -0.16821 38611 ft 454 kts 317°
2026-04-21 22:44 10.82946 -0.18886 37976 ft 448 kts 317°
2026-04-21 22:44 10.85313 -0.20938 37389 ft 446 kts 317°
2026-04-21 22:44 10.87674 -0.22985 36794 ft 447 kts 317°
2026-04-21 22:45 10.90047 -0.25040 36205 ft 449 kts 317°
2026-04-21 22:45 10.92424 -0.27098 35612 ft 449 kts 317°
2026-04-21 22:45 10.94792 -0.29149 35019 ft 447 kts 317°
2026-04-21 22:45 10.97152 -0.31195 34431 ft 444 kts 317°
2026-04-21 22:46 10.99495 -0.33230 33841 ft 441 kts 317°
2026-04-21 22:46 11.01684 -0.35397 33220 ft 438 kts 313°
2026-04-21 22:46 11.03796 -0.37632 32641 ft 440 kts 313°
2026-04-21 22:46 11.05933 -0.39879 32058 ft 442 kts 313°
2026-04-21 22:47 11.08081 -0.42108 31473 ft 443 kts 314°
2026-04-21 22:47 11.10243 -0.44356 30881 ft 443 kts 314°
2026-04-21 22:47 11.12398 -0.46616 30307 ft 445 kts 314°
2026-04-21 22:47 11.14534 -0.48857 29691 ft 440 kts 314°
2026-04-21 22:48 11.16664 -0.51078 29096 ft 436 kts 314°
2026-04-21 22:48 11.18783 -0.53290 28528 ft 435 kts 314°
2026-04-21 22:48 11.20867 -0.55472 27961 ft 434 kts 314°
2026-04-21 22:48 11.22967 -0.57672 27389 ft 432 kts 314°
2026-04-21 22:49 11.25057 -0.59859 26824 ft 431 kts 314°
2026-04-21 22:49 11.27143 -0.62041 26261 ft 429 kts 313°
2026-04-21 22:49 11.29225 -0.64221 25695 ft 428 kts 313°
2026-04-21 22:49 11.31292 -0.66387 25123 ft 426 kts 313°
2026-04-21 22:50 11.33359 -0.68553 24574 ft 425 kts 313°
2026-04-21 22:50 11.35241 -0.70524 24065 ft 424 kts 313°
2026-04-21 22:50 11.37299 -0.72681 23501 ft 423 kts 313°
2026-04-21 22:50 11.39222 -0.74697 22936 ft 421 kts 313°
2026-04-21 22:51 11.41243 -0.76817 22388 ft 419 kts 313°
2026-04-21 22:51 11.43275 -0.78948 21835 ft 418 kts 313°
2026-04-21 22:51 11.45295 -0.81066 21286 ft 415 kts 313°
2026-04-21 22:51 11.47307 -0.83177 20736 ft 412 kts 313°
2026-04-21 22:52 11.49294 -0.85262 20196 ft 408 kts 313°
2026-04-21 22:52 11.51267 -0.87331 19656 ft 405 kts 313°
2026-04-21 22:52 11.53223 -0.89386 19127 ft 404 kts 314°
2026-04-21 22:52 11.55183 -0.91445 18596 ft 403 kts 314°
2026-04-21 22:53 11.57129 -0.93489 18060 ft 401 kts 314°
2026-04-21 22:53 11.59073 -0.95531 17502 ft 401 kts 314°
2026-04-21 22:53 11.61012 -0.97568 16972 ft 398 kts 314°
2026-04-21 22:53 11.62939 -0.99593 16449 ft 398 kts 314°
2026-04-21 22:54 11.64863 -1.01616 15927 ft 396 kts 315°
2026-04-21 22:54 11.66778 -1.03628 15406 ft 395 kts 315°
2026-04-21 22:54 11.68687 -1.05636 14886 ft 393 kts 315°
2026-04-21 22:54 11.70588 -1.07636 14373 ft 393 kts 315°
2026-04-21 22:55 11.72489 -1.09636 13852 ft 392 kts 315°
2026-04-21 22:55 11.74384 -1.11630 13312 ft 390 kts 316°
2026-04-21 22:55 11.76258 -1.13603 12792 ft 385 kts 316°
2026-04-21 22:55 11.78111 -1.15554 12287 ft 380 kts 316°
2026-04-21 22:56 11.79936 -1.17476 11779 ft 376 kts 316°
2026-04-21 22:56 11.81748 -1.19383 11296 ft 371 kts 316°
2026-04-21 22:56 11.83492 -1.21223 10815 ft 349 kts 316°
2026-04-21 22:56 11.85134 -1.22955 10370 ft 330 kts 316°
2026-04-21 22:57 11.86686 -1.24589 9951 ft 314 kts 316°
2026-04-21 22:57 11.88181 -1.26162 9522 ft 302 kts 316°
2026-04-21 22:57 11.89627 -1.27685 9115 ft 297 kts 316°
2026-04-21 22:57 11.91045 -1.29178 8732 ft 296 kts 316°
2026-04-21 22:58 11.92473 -1.30684 8345 ft 295 kts 316°
2026-04-21 22:58 11.93901 -1.32190 7957 ft 294 kts 315°
2026-04-21 22:58 11.95324 -1.33692 7569 ft 293 kts 315°
2026-04-21 22:58 11.96732 -1.35180 7183 ft 291 kts 315°
2026-04-21 22:59 11.98141 -1.36668 6797 ft 291 kts 314°
2026-04-21 22:59 11.99544 -1.38152 6416 ft 289 kts 314°
2026-04-21 22:59 12.00941 -1.39627 6028 ft 289 kts 314°
2026-04-21 22:59 12.02339 -1.41102 5638 ft 287 kts 314°
2026-04-21 23:00 12.03720 -1.42563 5262 ft 284 kts 313°
2026-04-21 23:00 12.05080 -1.44002 4881 ft 278 kts 315°
2026-04-21 23:00 12.06412 -1.45409 4511 ft 273 kts 315°
2026-04-21 23:00 12.07728 -1.46801 4191 ft 270 kts 314°
2026-04-21 23:01 12.08588 -1.47711 4028 ft 270 kts 314°
2026-04-21 23:01 12.10334 -1.49556 3576 ft 274 kts 314°
2026-04-21 23:01 12.11648 -1.50946 3216 ft 266 kts 313°
2026-04-21 23:01 12.12926 -1.52298 2858 ft 256 kts 312°
2026-04-21 23:02 12.13738 -1.53168 2635 ft 254 kts 310°
2026-04-21 23:02 12.15013 -1.55070 2588 ft 240 kts 300°
2026-04-21 23:02 12.15637 -1.56030 2591 ft 242 kts 302°
2026-04-21 23:02 12.16585 -1.57467 2606 ft 235 kts 303°
2026-04-21 23:03 12.17750 -1.59258 2585 ft 226 kts 301°
2026-04-21 23:03 12.18414 -1.60118 2558 ft 231 kts 314°
2026-04-21 23:03 12.19776 -1.60749 2533 ft 202 kts 350°
2026-04-21 23:03 12.21089 -1.60639 2561 ft 183 kts 19°
2026-04-21 23:04 12.22200 -1.60016 2583 ft 187 kts 36°
2026-04-21 23:04 12.23283 -1.59288 2594 ft 185 kts 35°
2026-04-21 23:04 12.24375 -1.58561 2601 ft 190 kts 35°
2026-04-21 23:04 12.25468 -1.57833 2606 ft 188 kts 35°
2026-04-21 23:05 12.26513 -1.57134 2594 ft 165 kts 36°
2026-04-21 23:05 12.27404 -1.56554 2535 ft 143 kts 36°
2026-04-21 23:05 12.28236 -1.55995 2340 ft 140 kts 38°
2026-04-21 23:05 12.29032 -1.55459 2167 ft 135 kts 36°
2026-04-21 23:06 12.29810 -1.54936 2006 ft 136 kts 37°
2026-04-21 23:06 12.30631 -1.54384 1832 ft 143 kts 35°
2026-04-21 23:06 12.31433 -1.53846 1681 ft 136 kts 37°
2026-04-21 23:06 12.32221 -1.53311 1511 ft 136 kts 36°
2026-04-21 23:07 12.33001 -1.52784 1348 ft 133 kts 34°
2026-04-21 23:07 12.33768 -1.52264 1134 ft 130 kts 33°
2026-04-21 23:07 12.34500 -1.51783 1025 ft 117 kts 32°
2026-04-21 23:07 12.35039 -1.51422 1011 ft 60 kts 33°
2026-04-21 23:08 12.35230 -1.51297 1004 ft 7 kts 19°
2026-04-21 23:08 12.35239 -1.51304 1004 ft 3 kts 288°
2026-04-21 23:08 12.35250 -1.51347 1004 ft 11 kts 290°
2026-04-21 23:08 12.35272 -1.51381 1004 ft 0 kts 302°
2026-04-21 23:09 12.35274 -1.51384 1004 ft 2 kts 302°
2026-04-21 23:09 12.35283 -1.51399 1004 ft 3 kts 303°
2026-04-21 23:10 12.35306 -1.51406 1004 ft 4 kts
2026-04-21 23:10 12.35329 -1.51394 1003 ft 4 kts 27°
2026-04-21 23:10 12.35357 -1.51378 1003 ft 5 kts 30°
2026-04-21 23:10 12.35367 -1.51376 1002 ft 0 kts 333°
2026-04-21 23:11 12.35368 -1.51385 1005 ft 4 kts 281°
2026-04-21 23:11 12.35381 -1.51403 1002 ft 3 kts 321°
2026-04-21 23:11 12.35392 -1.51414 1003 ft 1 kts 314°